Date String (YYYY-MM-DD hh:mm:ss) UTC,Instrument flags,absolute air pressure of the measurement (hPa),sample flow rate (lpm),inlet stack bypass flow (lpm),air temperature of the measurement (°C),ambient temperature measured by the external sensor (°C),aerosol sample conditioner tube jacket temperature (°C),OPC LED temperature (°C),internal box temperature (°C),relative humidity of the measurement (%),span deviation,mass concentration of particles derived from Lorenz-Mie calculation of OPC scattering (μg/m³),mass concentration of particles derived from Lorenz-Mie calculation of OPC scattering (μg/m³),mass concentration of particles derived from Lorenz-Mie calculation of OPC scattering (μg/m³)
DateTimeUTC,F1_M11,P_M11,Q1_M11,Q2_M11,T1_M11,T2_M11,T3_M11,T4_M11,T5_M11,U1_M11,ZSPAN_M11,X0_M11,X2_M11,X1_M11
2023-06-16 23:00:00,SystemResetWarning,0833.4,5.01,000.00,030.4,028.9,000.0,039.0,031.9,29.9,0000.0,0002.93,0001.92,0001.54
2023-06-16 23:01:00,SystemResetWarning,0833.6,5.00,000.00,030.4,028.9,000.0,039.0,031.9,29.9,0000.0,0002.97,0001.95,0001.57
2023-06-16 23:02:00,SystemResetWarning,0833.4,5.00,000.00,030.4,028.9,000.0,039.0,031.9,29.8,0000.0,0003.04,0002.00,0001.59
2023-06-16 23:03:00,SystemResetWarning,0833.4,5.00,000.00,030.4,028.9,000.0,039.0,031.9,29.8,0000.0,0003.05,0002.04,0001.64
2023-06-16 23:04:00,SystemResetWarning,0833.4,5.00,000.00,030.4,028.9,000.0,039.0,031.9,29.8,0000.0,0003.01,0002.07,0001.66
2023-06-16 23:05:00,SystemResetWarning,0833.4,5.00,000.00,030.4,028.8,000.0,039.0,031.9,30.0,0000.0,0003.04,0002.09,0001.68
2023-06-16 23:06:00,SystemResetWarning,0833.4,4.99,000.00,030.4,027.0,000.0,038.9,031.9,30.1,0000.0,0003.69,0002.13,0001.71
2023-06-16 23:07:00,SystemResetWarning,0833.4,5.01,000.00,030.3,025.1,000.0,038.8,031.7,30.1,0000.0,0004.21,0002.13,0001.74
2023-06-16 23:08:00,SystemResetWarning,0833.4,5.02,000.00,030.3,024.7,000.0,038.8,031.4,30.1,0000.0,0004.68,0002.14,0001.76
2023-06-16 23:09:00,SystemResetWarning,0833.4,4.98,000.00,030.1,025.1,000.0,038.8,031.1,30.3,0000.0,0004.93,0002.16,0001.77
2023-06-16 23:10:00,SystemResetWarning,0833.4,5.00,000.00,030.0,025.5,000.0,038.7,031.2,30.6,0000.0,0004.93,0002.18,0001.79
2023-06-16 23:11:00,SystemResetWarning,0833.4,5.01,000.00,030.0,026.0,000.0,038.7,031.2,30.8,0000.0,0004.85,0002.16,0001.80
2023-06-16 23:12:00,SystemResetWarning,0833.5,5.00,000.00,030.0,026.5,000.0,038.7,031.2,30.7,0000.0,0004.85,0002.15,0001.80
2023-06-16 23:13:00,SystemResetWarning,0833.6,4.99,000.00,029.9,026.8,000.0,038.7,031.3,30.8,0000.0,0004.84,0002.14,0001.80
2023-06-16 23:14:00,SystemResetWarning,0833.6,5.02,000.00,029.9,027.1,000.0,038.6,031.3,31.0,0000.0,0004.80,0002.12,0001.80
2023-06-16 23:15:00,SystemResetWarning,0833.6,5.00,000.00,029.9,027.4,000.0,038.6,031.4,31.1,0000.0,0004.80,0002.13,0001.82
2023-06-16 23:16:00,SystemResetWarning,0833.7,5.00,000.00,029.9,027.6,000.0,038.6,031.4,31.3,0000.0,0004.75,0002.13,0001.84
2023-06-16 23:17:00,SystemResetWarning,0833.7,5.00,000.00,029.9,027.7,000.0,038.6,031.4,31.2,0000.0,0004.85,0002.15,0001.86
2023-06-16 23:18:00,SystemResetWarning,0833.7,5.00,000.00,029.9,027.9,000.0,038.6,031.4,31.0,0000.0,0005.07,0002.20,0001.88
2023-06-16 23:19:00,SystemResetWarning,0833.7,5.00,000.00,030.0,028.0,000.0,038.6,031.5,31.1,0000.0,0004.79,0002.22,0001.91
2023-06-16 23:20:00,SystemResetWarning,0833.7,5.01,000.00,030.0,028.1,000.0,038.6,031.5,31.1,0000.0,0004.40,0002.23,0001.93
2023-06-16 23:21:00,SystemResetWarning,0833.6,4.99,000.00,030.0,028.1,000.0,038.6,031.5,30.9,0000.0,0004.40,0002.24,0001.97
2023-06-16 23:22:00,SystemResetWarning,0833.7,4.99,000.00,030.0,028.2,000.0,038.6,031.5,30.9,0000.0,0004.57,0002.29,0001.99
2023-06-16 23:23:00,SystemResetWarning,0833.7,4.99,000.00,030.0,028.2,000.0,038.6,031.5,30.8,0000.0,0004.76,0002.35,0002.02
2023-06-16 23:24:00,SystemResetWarning,0833.7,5.00,000.00,030.0,028.3,000.0,038.6,031.5,30.6,0000.0,0004.88,0002.41,0002.05
2023-06-16 23:25:00,SystemResetWarning,0833.7,5.00,000.00,030.0,028.3,000.0,038.6,031.5,30.5,0000.0,0005.12,0002.46,0002.05
2023-06-16 23:26:00,SystemResetWarning,0833.7,5.00,000.00,030.0,028.4,000.0,038.6,031.5,30.4,0000.0,0005.09,0002.43,0002.04
2023-06-16 23:27:00,SystemResetWarning,0833.7,5.01,000.00,030.0,028.4,000.0,038.6,031.5,30.5,0000.0,0005.11,0002.41,0002.02
2023-06-16 23:28:00,SystemResetWarning,0833.7,5.00,000.00,030.0,028.4,000.0,038.6,031.5,30.3,0000.0,0004.89,0002.39,0001.99
2023-06-16 23:29:00,SystemResetWarning,0833.7,5.01,000.00,030.1,028.4,000.0,038.6,031.6,30.1,0000.0,0003.57,0002.34,0001.94
2023-06-16 23:30:00,SystemResetWarning,0833.7,4.98,000.00,030.1,028.4,000.0,038.6,031.6,30.0,0000.0,0003.67,0002.35,0001.89
2023-06-16 23:31:00,SystemResetWarning,0833.7,4.99,000.00,030.1,028.4,000.0,038.6,031.6,29.9,0000.0,0003.68,0002.33,0001.84
2023-06-16 23:32:00,SystemResetWarning,0833.8,5.01,000.00,030.1,028.5,000.0,038.6,031.5,29.8,0000.0,0003.81,0002.29,0001.79
2023-06-16 23:33:00,SystemResetWarning,0833.7,5.01,000.00,030.1,028.5,000.0,038.6,031.5,29.7,0000.0,0003.74,0002.26,0001.75
2023-06-16 23:34:00,SystemResetWarning,0833.7,5.00,000.00,030.1,028.5,000.0,038.6,031.6,29.6,0000.0,0003.66,0002.20,0001.70
2023-06-16 23:35:00,SystemResetWarning,0833.7,4.99,000.00,030.1,028.5,000.0,038.6,031.6,29.5,0000.0,0003.61,0002.16,0001.66
2023-06-16 23:36:00,SystemResetWarning,0833.7,4.99,000.00,030.1,028.5,000.0,038.7,031.6,29.4,0000.0,0003.45,0002.12,0001.63
2023-06-16 23:37:00,SystemResetWarning,0833.5,4.99,000.00,030.1,028.5,000.0,038.7,031.7,29.4,0000.0,0003.53,0002.11,0001.61
2023-06-16 23:38:00,SystemResetWarning,0833.4,5.00,000.00,030.1,028.5,000.0,038.7,031.7,29.4,0000.0,0003.40,0002.06,0001.57
2023-06-16 23:39:00,SystemResetWarning,0833.4,5.00,000.00,030.2,028.5,000.0,038.7,031.7,29.4,0000.0,0003.28,0002.00,0001.56
2023-06-16 23:40:00,SystemResetWarning,0833.4,5.00,000.00,030.2,028.6,000.0,038.7,031.7,29.4,0000.0,0003.33,0002.01,0001.56
2023-06-16 23:41:00,SystemResetWarning,0833.3,5.00,000.00,030.2,028.6,000.0,038.7,031.7,29.3,0000.0,0003.20,0001.95,0001.54
2023-06-16 23:42:00,SystemResetWarning,0833.2,5.01,000.00,030.2,028.6,000.0,038.7,031.7,29.2,0000.0,0003.04,0001.88,0001.52
2023-06-16 23:43:00,SystemResetWarning,0833.2,5.00,000.00,030.2,028.6,000.0,038.7,031.7,29.4,0000.0,0002.87,0001.84,0001.50
2023-06-16 23:44:00,SystemResetWarning,0833.3,5.00,000.00,030.2,028.6,000.0,038.7,031.7,29.6,0000.0,0002.73,0001.79,0001.47
2023-06-16 23:45:00,SystemResetWarning,0833.2,5.00,000.00,030.2,028.6,000.0,038.8,031.8,29.5,0000.0,0002.69,0001.77,0001.46
2023-06-16 23:46:00,SystemResetWarning,0833.2,5.00,000.00,030.2,028.7,000.0,038.8,031.8,29.4,0000.0,0002.66,0001.75,0001.45
2023-06-16 23:47:00,SystemResetWarning,0833.2,5.00,000.00,030.2,028.7,000.0,038.8,031.7,29.4,0000.0,0002.62,0001.71,0001.44
2023-06-16 23:48:00,SystemResetWarning,0833.2,5.00,000.00,030.2,028.7,000.0,038.8,031.8,29.5,0000.0,0003.23,0001.69,0001.42
2023-06-16 23:49:00,SystemResetWarning,0833.3,5.00,000.00,030.2,028.7,000.0,038.8,031.7,29.5,0000.0,0003.32,0001.72,0001.43
2023-06-16 23:50:00,SystemResetWarning,0833.3,5.00,000.00,030.3,028.7,000.0,038.8,031.7,29.7,0000.0,0003.46,0001.74,0001.42
2023-06-16 23:51:00,SystemResetWarning,0833.5,5.00,000.00,030.3,028.7,000.0,038.8,031.8,29.6,0000.0,0003.45,0001.72,0001.40
2023-06-16 23:52:00,SystemResetWarning,0833.4,5.00,000.00,030.3,028.7,000.0,038.8,031.8,29.5,0000.0,0003.46,0001.72,0001.38
2023-06-16 23:53:00,SystemResetWarning,0833.5,5.01,000.00,030.3,028.7,000.0,038.8,031.8,29.5,0000.0,0003.53,0001.75,0001.39
2023-06-16 23:54:00,SystemResetWarning,0833.6,5.00,000.00,030.3,028.7,000.0,038.8,031.8,29.4,0000.0,0003.65,0001.76,0001.39
2023-06-16 23:55:00,SystemResetWarning,0833.6,5.00,000.00,030.3,028.7,000.0,038.8,031.8,29.3,0000.0,0003.78,0001.78,0001.38
2023-06-16 23:56:00,SystemResetWarning,0833.6,5.00,000.00,030.3,028.7,000.0,038.9,031.8,29.3,0000.0,0003.73,0001.75,0001.36
2023-06-16 23:57:00,SystemResetWarning,0833.7,5.00,000.00,030.3,028.7,000.0,038.9,031.8,29.3,0000.0,0003.63,0001.74,0001.35
2023-06-16 23:58:00,SystemResetWarning,0833.7,5.00,000.00,030.3,028.7,000.0,038.9,031.8,29.1,0000.0,0003.59,0001.75,0001.33
2023-06-16 23:59:00,SystemResetWarning,0833.7,5.00,000.00,030.3,028.7,000.0,038.9,031.8,29.0,0000.0,0002.85,0001.71,0001.32
